Location: Ithaca
(42.4410°N, 76.4970°W)
Time: 06:24:14
(UTC-04:00)

Hubble Space Telescope - Visible Passes

Search period start: 04 September 2015 00:00
Search period end: 14 September 2015 00:00
Orbit: 541 x 545 km, 28.5° (Epoch: 02 September)

Date Brightness Start Highest point End Pass type
(mag) Time Alt. Az. Time Alt. Az. Time Alt. Az.
06 Sep 3.2 05:38:05 10° S 05:38:51 10° S 05:39:39 10° SSE visible
07 Sep 3.1 05:28:31 10° SSW 05:29:44 11° S 05:31:00 10° SSE visible
08 Sep 3.0 05:19:37 11° SSW 05:20:39 12° S 05:22:06 10° SSE visible
09 Sep 3.0 05:11:14 12° S 05:11:33 12° S 05:13:02 10° SSE visible
10 Sep 3.1 05:02:53 11° S 05:02:53 11° S 05:03:51 10° SSE visible
